Location: Azul
(36.7830°S, 59.8500°W)
Time: 03:48:24
(UTC-03:00)

ISS - Pass Details

Date: 17 July 2017
Orbit: 400 x 408 km, 51.6° (Epoch: 21 July)

Event Time Altitude Azimuth Distance (km) Brightness Sun altitude
Rises 19:54:07 0° 240° (WSW) 2,354 0.8 -21.8°
Reaches altitude 10° 19:56:26 10° 253° (WSW) 1,484 -0.1 -22.3°
Maximum altitude 19:59:15 26° 311° (NW) 858 -1.6 -22.8°
Enters shadow 20:00:36 19° 349° (N) 1,031 -1.6 -23.1°
